Weather History for 94203 - April, 2014

Change the Weather History Date:

Saturday, April 5, 2014

  Actual Average Record
Temperature  
Mean Temperature 81 °F -  
Max Temperature 92 °F 93 °F - ()
Min Temperature 70 °F 71 °F - ()
Cooling Degree Days 16    
Growing Degree Days 31 (Base 50)    
Moisture  
Dew Point 74 °F    
Average Humidity 74    
Maximum Humidity 94    
Minimum Humidity 46    
Precipitation  
Precipitation 0.00 in 0.03 in - ()
Sea Level Pressure  
Sea Level Pressure 29.82 in    
Wind  
Wind Speed 6 mph ()    
Max Wind Speed 13 mph    
Max Gust Speed -    
Visibility 6.2 miles    
Events Rain    
T = Trace of Precipitation, MM = Missing Value Source: Averaged Metar Reports

Daily Weather History Graph

Daily Weather History Graph

Search for Another Location

Airport or City:

Trip Planner

Search our weather history database for the weather conditions in past years. The results will help you decide how hot, cold, wet, or windy it might be!

Date:

Astronomy

Apr. 05, 2014 Rise Set
Actual Time 5:58 AM AWST 5:49 PM AWST
Civil Twilight 5:36 AM AWST 6:11 PM AWST
Nautical Twilight 5:11 AM AWST 6:36 PM AWST
Astronomical Twilight 4:45 AM AWST 7:01 PM AWST
Moon 10:42 AM AWST 10:13 PM AWST
Length of Visible Light 12h 34m
Length of Day
11h 51m
Waxing Crescent, 30% of the Moon is Illuminated
Apr 5
Waxing Crescent
Apr 7
First Quarter
Apr 15
Full
Apr 22
Last Quarter
Apr 29
New

Hourly Weather History & Observations

Time (AWST) Temp. Heat Index Dew Point Humidity Pressure Visibility Wind Dir Wind Speed Gust Speed Precip Events Conditions
12:00 AM 75 °F - 73 °F 92% 29.85 in - SSW 1.2 mph - -  
12:00 AM 75.2 °F - 73.4 °F 94% 29.83 in 6.2 mi SSW 1.2 mph - N/A   Unknown
12:30 AM 77.0 °F - 75.2 °F 94% 29.83 in 6.2 mi South 3.5 mph - N/A   Unknown
1:00 AM 77.0 °F - 75.2 °F 94% 29.83 in 6.2 mi East 11.5 mph - N/A   Unknown
1:30 AM 75.2 °F - 73.4 °F 94% 29.83 in 6.2 mi ENE 10.4 mph - N/A Rain Light Rain Showers
2:00 AM 74 °F - 72 °F 92% 29.82 in - ENE 6.9 mph - -  
2:00 AM 75.2 °F - 71.6 °F 89% 29.80 in 6.2 mi ENE 6.9 mph - N/A   Unknown
2:30 AM 75.2 °F - 71.6 °F 89% 29.80 in 6.2 mi ENE 5.8 mph - N/A   Unknown
3:00 AM 75 °F - 72 °F 87% 29.81 in - East 4.6 mph - -  
3:00 AM 75.2 °F - 71.6 °F 89% 29.80 in 6.2 mi East 4.6 mph - N/A   Unknown
3:30 AM 75.2 °F - 71.6 °F 89% 29.80 in 6.2 mi North 4.6 mph - N/A   Unknown
4:00 AM 75.2 °F - 71.6 °F 89% 29.80 in 6.2 mi NNE 6.9 mph - N/A   Unknown
4:30 AM 73.4 °F - 71.6 °F 94% 29.80 in 6.2 mi Calm Calm - N/A   Unknown
5:00 AM 75 °F - 72 °F 87% 29.83 in - West 5.8 mph - -  
5:00 AM 75.2 °F - 71.6 °F 89% 29.83 in 6.2 mi West 5.8 mph - N/A   Unknown
5:30 AM 75.2 °F - 73.4 °F 94% 29.83 in - NW 2.3 mph - N/A   Clear
6:00 AM 75 °F - 73 °F 90% 29.85 in 25 mi NNE 3.5 mph - -   Partly Cloudy
6:00 AM 75.2 °F - 73.4 °F 94% 29.83 in - North 3.5 mph - N/A   Clear
6:30 AM 75.2 °F - 73.4 °F 94% 29.83 in - Calm Calm - N/A   Clear
7:00 AM 77.0 °F - 73.4 °F 89% 29.86 in - East 3.5 mph - N/A   Clear
7:30 AM 78.8 °F - 71.6 °F 78% 29.86 in - East 3.5 mph - N/A   Clear
8:00 AM 80 °F - 72 °F 71% 29.87 in - NNE 6.9 mph - -  
8:00 AM 80.6 °F 84.6 °F 71.6 °F 74% 29.86 in - NNE 6.9 mph - N/A   Clear
8:30 AM 82.4 °F 87.2 °F 71.6 °F 70% 29.86 in - NNE 5.8 mph - N/A   Clear
9:00 AM 85 °F - 71 °F 55% 29.87 in 25 mi NE 6.9 mph - -   Partly Cloudy
9:00 AM 86.0 °F 91.8 °F 71.6 °F 62% 29.86 in - NE 6.9 mph - N/A   Clear
9:30 AM 87.8 °F 93.8 °F 71.6 °F 58% 29.86 in - NE 6.9 mph - N/A   Clear
10:00 AM 87.8 °F 93.8 °F 71.6 °F 58% 29.86 in - East 5.8 mph - N/A   Clear
10:30 AM 87.8 °F 95.6 °F 73.4 °F 62% 29.86 in - SE 6.9 mph - N/A   Clear
11:00 AM 90 °F - 73 °F 48% 29.85 in - SSE 3.5 mph - -  
11:00 AM 89.6 °F 98.2 °F 73.4 °F 59% 29.83 in 6.2 mi SSE 3.5 mph - N/A   Unknown
11:30 AM 91.4 °F 102.5 °F 75.2 °F 59% 29.83 in - WSW 5.8 mph - N/A   Clear
12:00 PM 91 °F - 75 °F 51% 29.83 in 25 mi West 10.4 mph - -   Partly Cloudy
12:00 PM 91.4 °F 102.5 °F 75.2 °F 59% 29.83 in - West 10.4 mph - N/A   Clear
12:30 PM 91.4 °F 98.4 °F 71.6 °F 52% 29.80 in - West 8.1 mph - N/A   Clear
1:00 PM 91.4 °F 98.4 °F 71.6 °F 52% 29.80 in - West 9.2 mph - N/A   Clear
1:30 PM 91.4 °F 98.4 °F 71.6 °F 52% 29.80 in - West 9.2 mph - N/A   Clear
2:00 PM 90 °F - 72 °F 46% 29.80 in - West 10.4 mph - -  
2:00 PM 91.4 °F 98.4 °F 71.6 °F 52% 29.80 in - West 10.4 mph - N/A   Clear
2:30 PM 91.4 °F 102.5 °F 75.2 °F 59% 29.77 in - WNW 10.4 mph - N/A   Clear
3:00 PM 90 °F - 75 °F 52% 29.78 in 25 mi NW 10.4 mph - -   Scattered Clouds
3:00 PM 89.6 °F 99.8 °F 75.2 °F 62% 29.77 in - NW 10.4 mph - N/A   Clear
3:30 PM 89.6 °F 98.2 °F 73.4 °F 59% 29.77 in - WNW 12.7 mph - N/A   Clear
4:00 PM 89.6 °F 99.8 °F 75.2 °F 62% 29.77 in 6.2 mi WNW 12.7 mph - N/A   Partly Cloudy
4:30 PM 89.6 °F 102.2 °F 77.0 °F 66% 29.77 in - WNW 11.5 mph - N/A   Clear
5:00 PM 88 °F - 76 °F 60% 29.80 in - WNW 10.4 mph - -  
5:00 PM 87.8 °F 97.6 °F 75.2 °F 66% 29.80 in - WNW 10.4 mph - N/A   Clear
5:30 PM 87.8 °F 99.7 °F 77.0 °F 70% 29.80 in 6.2 mi NW 10.4 mph - N/A   Partly Cloudy
6:00 PM 86 °F - 77 °F 67% 29.80 in 25 mi WNW 8.1 mph - -   Scattered Clouds
6:00 PM 86.0 °F 96.9 °F 77.0 °F 74% 29.80 in 6.2 mi WNW 8.1 mph - N/A   Partly Cloudy
6:30 PM 86.0 °F 96.9 °F 77.0 °F 74% 29.80 in 6.2 mi NW 8.1 mph - N/A   Partly Cloudy
7:00 PM 86.0 °F 96.9 °F 77.0 °F 74% 29.80 in 6.2 mi WNW 8.1 mph - N/A   Partly Cloudy
7:30 PM 86.0 °F 96.9 °F 77.0 °F 74% 29.83 in - WNW 9.2 mph - N/A   Clear
8:00 PM 85 °F - 78 °F 73% 29.84 in - WNW 9.2 mph - -  
8:00 PM 86.0 °F 96.9 °F 77.0 °F 74% 29.83 in 6.2 mi WNW 9.2 mph - N/A   Partly Cloudy
8:30 PM 86.0 °F 99.3 °F 78.8 °F 79% 29.83 in 6.2 mi NW 8.1 mph - N/A   Partly Cloudy
9:00 PM 85 °F - 78 °F 75% 29.86 in 25 mi NW 6.9 mph - -   Partly Cloudy
9:00 PM 86.0 °F 99.3 °F 78.8 °F 79% 29.86 in 6.2 mi NW 6.9 mph - N/A   Scattered Clouds
9:30 PM 86.0 °F 99.3 °F 78.8 °F 79% 29.86 in 6.2 mi WNW 6.9 mph - N/A   Scattered Clouds
10:00 PM 86.0 °F 96.9 °F 77.0 °F 74% 29.86 in 6.2 mi WNW 6.9 mph - N/A   Scattered Clouds
10:30 PM 84.2 °F 96.1 °F 78.8 °F 84% 29.83 in 6.2 mi WNW 8.1 mph - N/A   Unknown
11:00 PM 85 °F - 78 °F 75% 29.85 in - WNW 8.1 mph - -  
11:00 PM 84.2 °F 96.1 °F 78.8 °F 84% 29.83 in 6.2 mi WNW 8.1 mph - N/A   Scattered Clouds
11:30 PM 84.2 °F 96.1 °F 78.8 °F 84% 29.83 in 6.2 mi WNW 6.9 mph - N/A   Scattered Clouds